Miscellaneous Local Product
Issued by NWS Hastings, NE

Home | Current Version | Previous Version | Graphics & Text | Print | Product List | Glossary On
Versions: 1 2 3 4 5 6 7 8 9 10 11 12 13 14 15 16 17 18 19 20 21 22 23 24 25 26 27 28 29 30 31 32 33 34 35 36 37 38 39 40 41 42 43 44 45 46 47 48 49 50
000
AXUS43 KGID 181902
MISGRI

GID CWA HOURLY WEATHER ROUNDUP
NATIONAL WEATHER SERVICE HASTINGS NE
100 PM CST WED JAN 18 2017

NOTE: "FAIR" INDICATES FEW OR NO CLOUDS BELOW 12,000 FEET WITH NO
SIGNIFICANT WEATHER AND/OR OBSTRUCTIONS TO VISIBILITY.

...SOUTH CENTRAL NEBRASKA...

CITY           SKY/WX    TMP DP  RH WIND       PRES   REMARKS
GRAND ISLAND   CLOUDY    44  37  76 S15       29.92F
HASTINGS       SUNNY     45  37  73 S10       29.94F
KEARNEY        CLOUDY    39  32  75 S15       29.91F WCI  31
ORD            SUNNY     44  34  67 S13       29.85F
YORK           SUNNY     45  39  81 S12       29.94F
AURORA         CLOUDY    45  37  76 S10G20    29.92F
LEXINGTON      CLOUDY    42  34  73 S12       29.89F
HOLDREGE       CLOUDY    40  35  84 S12       29.90F WCI  32
HEBRON         SUNNY     46  37  69 SW13      29.97F

...NEBRASKA PANHANDLE...

CITY           SKY/WX    TMP DP  RH WIND       PRES   REMARKS
CHADRON        CLOUDY    36  23  59 SW9       29.79F WCI  29
ALLIANCE       SUNNY     49  20  31 W7        29.79F
SCOTTSBLUFF    SUNNY     46  21  37 NW5       29.80F
SIDNEY         CLOUDY    49  23  36 NW8       29.83F

...WESTERN AND NORTH CENTRAL NEBRASKA...

CITY           SKY/WX    TMP DP  RH WIND       PRES   REMARKS
VALENTINE      SUNNY     53  19  26 SW9       29.78F
AINSWORTH      SUNNY     53  25  33 SW9       29.79F
ONEILL         SUNNY     51  31  45 S13       29.82F
BROKEN BOW     SUNNY     45  32  60 S14G26    29.84F
IMPERIAL       CLOUDY    40  29  64 S9        29.87F WCI  34
NORTH PLATTE   SUNNY     46  30  53 CALM      29.85F
MCCOOK         CLOUDY    38  32  79 W6        29.88F WCI  33

...EASTERN NEBRASKA...

CITY           SKY/WX    TMP DP  RH WIND       PRES   REMARKS
NORFOLK        SUNNY     43  37  79 S12       29.87F
SO SIOUX CITY  SUNNY     48  39  71 S8        29.90F
TEKAMAH        SUNNY     46  39  76 S10       29.94F
COLUMBUS       SUNNY     46  37  71 S16       29.92F
ALBION         SUNNY     42  36  79 S9        29.88F
OMAHA EPPLEY   MOSUNNY   45  36  70 S13       29.97F
OFFUTT AFB     SUNNY     46  43  90 SE13      29.98F
MILLARD        SUNNY     51  39  64 S10G16    29.97F
LINCOLN        SUNNY     50  39  66 S14       29.97F
NEBRASKA CITY  SUNNY     45  38  76 S12       30.01F
BEATRICE       SUNNY     48  40  71 S10       29.99F
FALLS CITY     SUNNY     48  37  65 S8        30.03F

...NORTHERN KANSAS...

CITY           SKY/WX    TMP DP  RH WIND       PRES   REMARKS
GOODLAND       CLOUDY    44  33  65 W5        29.87F
HILL CITY      SUNNY     45  36  70 S8        29.94F
NORTON         CLEAR     43  34  70 S13       29.91F
PHILLIPSBURG   SUNNY     48  37  66 S10       29.95F
SMITH CENTER   MOSUNNY   46  39  76 S9        29.95F
HAYS           LGT RAIN  47  40  76 S10       29.94F
RUSSELL        NOT AVBL
CONCORDIA      CLOUDY    49  38  65 S18       29.97F
SALINA         CLOUDY    45  36  70 S13       30.05F
TOPEKA         SUNNY     50  36  58 S12       30.07F



USA.gov is the U.S. government's official web portal to all federal, state and local government web resources and services.